Temperature
14 13 13 13 14 14 14 13 13 13 13 15 15 15 16 16 16 16 16 16 16 16 16 16 16 16 16 16 16 16 16 16 16 16 16 16 16 16
14 13 13 13 13 14 14 14 14 13 13 14 14 14 15 15 15 15 15 15 15 16 16 16 15 15 16 16 15 15 15 15 15 15 15 15 16 16
14 14 13 13 13 14 14 14 14 14 14 14 13 13 13 14 14 14 14 14 15 15 15 15 15 15 15 14 14 14 14 14 14 14 14 14 14 15
14 14 13 13 13 14 14 14 14 14 14 13 13 13 13 13 13 12 13 13 14 13 14 14 14 14 13 13 13 13 13 13 13 13 13 13 13 14
14 13 13 13 13 14 14 14 14 14 14 13 13 13 13 13 12 12 12 12 13 12 12 12 13 13 13 13 13 13 13 13 13 13 13 13 13 13
13 13 13 13 13 14 14 14 14 14 14 13 13 13 12 12 12 12 11 11 11 11 12 12 12 12 12 12 12 13 13 13 13 13 13 13 13 13
12 13 13 13 13 13 14 14 14 14 13 13 12 12 12 12 12 11 11 11 11 11 11 11 11 12 12 12 12 12 12 12 12 12 12 12 12 12
12 12 13 13 13 13 13 14 14 14 13 13 12 12 12 12 11 11 11 11 10 10 11 10 11 11 11 11 11 11 11 11 11 11 11 11 11 11
11 12 12 13 13 13 13 13 14 13 13 13 13 12 12 12 11 11 11 11 10 10 10 10 10 10 10 10 10 10 10 10 10 10 10 10 9 9
10 11 11 12 12 13 13 13 13 13 13 12 12 12 12 11 11 11 11 10 10 9 10 10 9 10 10 10 9 9 9 9 9 9 8 8 8 8
10 10 11 11 12 12 13 13 13 12 12 12 12 12 11 11 11 10 10 10 9 9 9 10 9 9 9 9 9 9 8 8 8 8 7 7 7 7
9 10 10 11 11 12 12 12 12 12 11 11 11 11 11 11 11 11 11 11 10 9 9 10 9 9 8 8 8 8 8 8 7 7 7 7 7 7
9 9 10 10 11 11 12 12 13 12 11 11 11 11 10 10 11 11 11 12 11 11 10 10 10 10 9 8 8 8 8 8 7 7 7 7 7 7
9 9 9 10 10 11 11 12 12 12 11 11 11 11 11 11 11 11 11 11 12 12 11 11 11 10 10 9 8 8 8 8 8 7 7 7 7 7
8 8 8 9 9 10 10 11 11 11 11 11 11 11 11 11 11 11 11 11 11 11 11 11 11 11 10 10 9 9 8 8 8 7 7 7 7 7
8 8 8 8 8 9 10 10 11 11 11 11 11 11 11 11 11 11 11 11 11 11 11 11 11 11 11 10 10 9 8 8 8 8 7 7 7 7
8 8 7 8 8 8 9 10 10 11 11 11 11 11 11 11 11 11 11 12 11 11 11 11 11 11 11 10 10 9 9 8 8 8 8 7 7 7
8 7 7 7 8 8 9 9 10 10 10 11 11 11 11 11 11 10 11 11 11 11 11 11 11 10 10 9 9 9 9 8 8 8 8 7 7 7
7 7 7 8 8 8 9 9 10 10 10 11 11 11 11 11 10 10 10 10 11 11 11 10 10 10 10 9 9 9 9 9 8 8 8 8 8 8
7 7 7 7 8 8 9 9 10 10 11 11 11 11 11 10 10 10 10 10 10 10 9 9 9 10 10 10 10 9 9 9 9 9 8 8 8 8
7 7 7 7 8 9 9 9 10 10 11 11 11 11 10 10 10 10 10 10 10 10 9 9 9 10 10 10 9 9 9 9 9 9 9 8 8 8
7 7 7 7 8 9 9 10 10 11 11 11 11 11 10 10 10 10 10 10 10 10 10 10 9 9 10 10 10 10 9 9 9 9 9 9 9 8
7 7 7 8 8 9 9 10 10 11 11 11 11 11 11 10 10 10 11 10 10 10 10 10 10 9 9 9 10 10 10 10 9 9 9 9 9 8
Wind_Speed
7 7 6 6 6 6 6 6 4 4 3 4 1 2 4 5 7 8 9 13 16 17 18 17 17 16 14 13 12 11 11 10 9 8 6 3 2 9
6 7 7 6 6 6 6 5 6 5 4 3 1 2 5 6 9 9 11 15 16 18 19 19 18 17 16 16 15 15 14 14 14 14 15 15 15 14
8 8 8 7 6 5 5 5 5 6 6 4 2 3 5 9 8 9 10 10 12 17 18 18 18 17 16 16 15 15 15 15 15 16 16 17 18 18
9 9 9 7 7 6 5 5 5 6 5 5 3 4 5 10 11 9 6 9 11 16 17 18 18 18 17 16 16 16 16 16 16 16 17 17 18 19
8 9 9 8 8 6 6 6 5 5 5 5 4 3 5 9 12 10 10 9 10 15 17 17 18 18 17 17 18 18 18 18 18 18 18 19 19 20
7 9 10 10 9 8 7 7 5 5 5 6 6 7 7 9 11 11 9 8 8 9 11 14 17 18 18 19 19 19 20 20 20 20 21 21 22 22
7 8 9 11 12 9 7 6 6 5 5 7 8 7 9 11 10 8 11 10 8 6 8 7 7 8 11 15 18 19 20 20 21 21 21 22 23 23
7 7 8 10 11 11 10 9 9 8 8 7 6 10 10 11 9 11 12 12 6 3 6 6 5 6 5 9 14 17 18 19 19 19 20 21 21 21
6 6 7 8 10 7 7 6 4 7 9 8 11 11 12 13 13 12 10 7 7 8 7 5 3 4 3 8 13 15 17 17 17 17 17 18 19 19
7 7 8 8 9 9 7 5 4 5 7 7 9 10 12 12 11 11 12 10 9 6 5 4 3 3 3 4 6 9 12 14 15 15 16 17 17 18
6 6 8 10 14 14 10 8 7 6 10 14 14 15 17 16 14 11 11 12 11 6 3 4 3 3 2 1 1 3 5 8 10 13 15 19 19 17
4 3 7 10 16 16 11 10 11 8 10 12 13 14 13 13 12 10 11 12 10 5 4 4 5 4 3 0 1 1 1 1 3 8 13 18 18 12
3 1 0 5 12 15 13 9 12 12 10 10 9 8 7 6 7 7 8 11 10 5 7 5 5 4 4 4 2 2 2 1 1 2 6 11 13 11
5 3 3 6 4 7 9 12 16 14 10 9 9 7 6 5 5 7 7 7 7 8 12 9 5 5 5 4 3 2 1 1 2 1 3 6 7 7
5 7 7 8 5 1 5 15 15 11 10 10 9 6 5 6 6 7 8 8 7 7 12 8 8 6 5 5 5 4 2 1 1 2 2 3 5 5
6 8 9 8 4 2 3 10 8 9 11 9 8 6 5 5 7 8 8 8 7 5 6 7 10 10 5 5 6 4 4 4 2 2 2 2 4 10
7 4 3 3 2 1 3 5 5 8 9 7 9 8 7 6 6 5 5 5 6 6 4 5 6 8 7 7 6 5 4 3 3 2 3 2 1 5
8 5 6 6 5 4 5 5 5 7 8 10 10 9 8 8 6 4 4 7 8 7 6 5 7 7 6 6 4 6 4 4 3 2 3 3 2 4
6 6 6 7 7 6 5 5 5 6 8 11 11 10 9 8 7 6 5 6 6 5 4 4 5 6 6 4 1 1 5 4 4 3 3 3 4 5
5 6 7 7 7 6 6 5 6 8 9 10 10 10 9 8 8 7 6 6 6 4 3 3 4 5 6 7 5 3 6 6 5 4 3 2 3 4
5 5 5 7 7 6 6 7 8 9 10 10 10 10 9 8 8 8 7 9 6 5 5 5 4 7 5 5 4 2 4 8 9 6 5 3 2 2
5 5 4 6 6 6 7 7 8 9 10 8 8 8 8 9 10 10 9 8 5 5 5 4 4 4 3 4 5 5 4 4 7 11 10 10 6 5
5 4 3 5 6 6 7 9 10 9 9 8 8 8 8 8 8 9 10 9 7 6 5 5 4 3 3 4 5 4 4 4 3 4 6 16 21 20
Wind_Direction
222 229 235 245 239 234 228 224 235 263 279 274 280 92 109 105 110 109 114 119 121 120 120 119 117 114 109 104 99 94 90 87 82 75 69 60 252 241
217 224 234 240 242 237 229 223 220 229 244 253 234 137 131 115 107 106 112 112 111 113 112 111 108 105 101 96 91 88 86 84 81 78 75 74 74 77
219 220 230 231 234 237 230 221 219 218 238 234 188 142 126 124 113 106 109 107 108 107 108 107 105 102 99 97 94 91 90 87 85 83 80 79 79 81
223 218 227 229 231 234 229 225 220 213 215 213 181 153 135 137 125 116 107 105 105 106 107 108 106 104 102 101 99 96 93 91 87 84 83 83 85 85
232 221 221 218 229 231 228 228 226 220 207 193 170 145 136 136 125 115 108 105 102 106 103 103 105 105 104 102 99 97 96 93 90 86 84 85 86 86
256 235 222 213 218 220 222 223 221 219 199 181 164 155 146 138 131 129 122 115 109 106 101 103 104 102 103 102 101 100 98 96 93 90 88 86 85 84
276 255 234 217 210 206 207 210 208 203 184 174 165 154 151 149 143 139 133 120 101 107 110 101 97 91 94 101 104 105 103 100 97 95 93 91 89 87
276 268 241 209 199 199 205 206 203 191 179 169 163 160 157 150 140 142 138 133 121 138 116 104 98 97 87 102 114 112 108 107 106 104 102 99 96 93
262 256 230 204 181 176 176 162 168 175 172 162 160 156 154 152 144 141 139 127 126 151 128 103 89 92 85 108 116 115 113 112 112 113 114 109 105 103
249 244 226 197 185 173 158 137 116 108 129 136 142 140 143 141 139 139 134 116 113 128 115 110 106 88 68 77 108 112 112 110 111 116 125 127 122 116
248 244 226 200 188 171 154 142 123 105 96 107 116 121 126 131 135 133 135 139 143 142 129 113 127 100 79 74 97 125 116 111 106 109 128 141 136 123
243 246 227 202 182 170 159 153 145 137 126 117 115 120 130 141 148 150 152 152 146 143 167 125 142 131 112 234 196 169 150 128 105 104 126 148 150 134
202 177 90 181 180 176 166 166 157 143 131 127 127 127 132 151 170 171 165 160 156 152 160 135 148 144 135 152 190 194 184 165 137 136 150 158 170 169
171 141 84 89 120 179 174 157 145 135 131 130 132 138 143 150 154 159 160 156 158 157 159 147 144 159 135 130 163 171 166 176 160 166 171 171 166 177
160 141 105 82 67 117 181 156 150 142 141 142 143 143 139 136 122 111 107 108 89 112 153 155 146 146 141 143 151 146 141 184 174 163 145 152 165 153
147 138 117 104 92 359 169 166 160 156 151 147 142 132 117 115 123 125 124 117 102 72 60 122 149 144 134 130 136 145 153 170 194 187 135 118 164 177
148 139 134 122 132 171 172 176 155 146 141 137 141 136 129 122 120 117 117 113 119 125 100 63 74 100 113 131 134 143 147 167 194 173 110 87 81 193
146 158 162 160 171 186 185 174 156 152 151 149 151 149 147 142 134 119 116 126 130 129 125 124 114 96 64 32 85 140 142 163 178 163 137 131 196 236
155 168 171 173 178 183 181 173 164 159 155 156 158 157 152 145 136 131 127 127 130 129 130 130 125 120 127 140 320 150 151 160 158 162 174 171 197 227
175 171 175 176 178 178 177 173 158 155 158 157 157 156 154 150 145 144 143 142 140 131 128 132 143 143 154 165 174 206 189 162 163 181 203 214 250 277
177 172 177 178 176 173 173 167 158 159 160 156 158 159 158 152 155 162 164 160 144 141 156 180 191 152 117 106 116 199 238 212 192 177 179 180 238 285
175 174 175 182 175 170 167 159 154 155 156 153 158 162 162 159 161 167 173 173 169 159 163 159 128 119 120 141 169 197 230 241 228 218 208 195 178 199
173 182 184 191 184 171 164 158 154 156 157 154 157 160 159 153 153 160 168 167 161 153 142 144 145 143 150 154 167 191 216 225 216 221 244 236 230 235
Height
1469 1469 1469 1468 1468 1467 1466 1465 1465 1462 1460 1460 1461 1462 1464 1465 1467 1469 1471 1473 1475 1477 1479 1482 1484 1486 1488 1489 1491 1492 1493 1495 1496 1497 1498 1499 1500 1501
1464 1464 1464 1464 1464 1463 1462 1461 1460 1459 1457 1457 1458 1459 1461 1462 1464 1466 1468 1470 1472 1475 1477 1479 1481 1483 1484 1486 1487 1488 1490 1491 1492 1493 1494 1495 1495 1497
1459 1459 1459 1459 1459 1459 1458 1457 1456 1455 1453 1453 1454 1456 1457 1459 1461 1463 1466 1468 1470 1473 1475 1477 1479 1481 1482 1484 1485 1486 1488 1489 1490 1491 1492 1493 1493 1495
1452 1453 1454 1454 1454 1454 1453 1452 1451 1449 1448 1448 1450 1452 1454 1457 1459 1462 1464 1467 1469 1472 1474 1476 1479 1481 1483 1484 1485 1486 1488 1489 1490 1491 1492 1492 1493 1494
1445 1446 1447 1448 1448 1448 1448 1446 1446 1444 1443 1444 1446 1449 1452 1454 1457 1461 1464 1466 1469 1472 1475 1477 1479 1482 1484 1485 1486 1487 1488 1489 1490 1491 1492 1493 1494 1495
1438 1439 1441 1442 1442 1442 1442 1441 1440 1439 1438 1439 1442 1446 1449 1452 1455 1459 1463 1466 1469 1473 1476 1478 1481 1483 1485 1487 1488 1489 1490 1491 1492 1493 1493 1494 1495 1496
1430 1432 1433 1435 1436 1437 1436 1435 1434 1433 1432 1434 1438 1441 1445 1449 1452 1457 1461 1465 1470 1474 1476 1480 1483 1485 1487 1489 1490 1491 1492 1493 1494 1495 1495 1496 1497 1498
1423 1424 1426 1429 1430 1431 1431 1430 1429 1428 1428 1430 1433 1437 1441 1445 1450 1454 1459 1463 1468 1474 1477 1481 1485 1487 1489 1491 1492 1493 1494 1495 1495 1496 1497 1497 1498 1499
1416 1417 1419 1422 1424 1425 1426 1425 1424 1423 1424 1426 1429 1433 1438 1442 1447 1453 1458 1462 1466 1473 1478 1481 1486 1488 1490 1492 1494 1495 1495 1496 1496 1497 1498 1499 1499 1500
1410 1410 1412 1415 1418 1420 1421 1422 1421 1420 1421 1424 1428 1432 1437 1442 1447 1452 1458 1464 1470 1475 1480 1482 1487 1489 1492 1494 1495 1496 1496 1497 1497 1498 1498 1499 1501 1502
1403 1404 1406 1409 1412 1416 1418 1419 1418 1419 1421 1424 1428 1433 1438 1443 1449 1454 1459 1465 1470 1476 1481 1483 1487 1490 1493 1495 1497 1498 1498 1498 1498 1499 1500 1501 1502 1503
1398 1398 1400 1403 1408 1411 1414 1416 1417 1419 1421 1425 1430 1436 1441 1446 1452 1456 1460 1464 1469 1475 1481 1484 1487 1490 1494 1496 1498 1499 1500 1500 1501 1501 1502 1503 1504 1505
1393 1394 1395 1398 1403 1408 1412 1415 1417 1419 1423 1427 1432 1437 1443 1448 1453 1458 1462 1466 1469 1473 1479 1483 1486 1489 1491 1495 1497 1499 1500 1501 1501 1502 1503 1504 1505 1505
1390 1390 1391 1393 1398 1404 1409 1414 1417 1420 1424 1428 1433 1438 1444 1449 1453 1458 1462 1467 1471 1474 1478 1482 1485 1488 1490 1493 1496 1498 1500 1501 1502 1503 1504 1504 1505 1505
1386 1388 1389 1391 1395 1400 1407 1412 1416 1420 1424 1428 1433 1439 1444 1449 1454 1458 1463 1467 1471 1475 1478 1481 1484 1487 1490 1492 1494 1497 1499 1501 1501 1502 1503 1504 1504 1505
1383 1385 1387 1389 1392 1397 1403 1410 1415 1420 1424 1429 1434 1440 1445 1450 1454 1458 1461 1465 1469 1473 1477 1480 1483 1486 1489 1491 1494 1496 1498 1500 1501 1502 1503 1503 1504 1504
1380 1382 1384 1387 1390 1395 1401 1408 1414 1419 1424 1429 1434 1439 1444 1449 1453 1457 1460 1463 1466 1470 1474 1478 1482 1485 1488 1491 1493 1495 1497 1499 1500 1501 1502 1502 1502 1503
1376 1379 1382 1385 1389 1394 1399 1406 1412 1418 1424 1429 1434 1438 1443 1448 1452 1456 1459 1463 1466 1469 1472 1476 1480 1483 1488 1491 1494 1495 1497 1499 1499 1500 1500 1500 1501 1501
1373 1376 1379 1382 1386 1391 1397 1404 1411 1417 1423 1428 1433 1438 1442 1446 1450 1454 1458 1462 1465 1468 1471 1475 1478 1481 1485 1488 1492 1495 1497 1497 1498 1498 1499 1499 1499 1500
1370 1373 1376 1380 1384 1390 1396 1404 1410 1417 1422 1427 1432 1437 1441 1445 1448 1453 1457 1460 1463 1466 1470 1473 1477 1481 1484 1487 1490 1493 1495 1496 1497 1497 1497 1498 1498 1497
1368 1371 1374 1378 1383 1389 1396 1403 1410 1415 1420 1425 1431 1436 1440 1444 1448 1453 1457 1460 1463 1466 1469 1473 1477 1481 1484 1486 1488 1491 1493 1495 1495 1495 1495 1495 1495 1494
1367 1371 1374 1378 1384 1390 1397 1403 1410 1415 1420 1425 1430 1435 1440 1444 1448 1452 1456 1459 1463 1466 1470 1473 1475 1478 1481 1483 1485 1488 1490 1492 1492 1493 1492 1492 1491 1490
1367 1371 1375 1379 1385 1391 1397 1403 1409 1414 1420 1425 1430 1434 1439 1443 1447 1451 1455 1459 1462 1466 1468 1471 1473 1476 1478 1481 1483 1485 1487 1488 1489 1489 1488 1488 1487 1486